Starlink 32285

operational
NORAD ID: 60355 Int'l Des: 2024-138 Owner: SPXS Country: US Constellation: starlink
LEOCIRCULAR

Starlink 32285について

説明を読み込み中...

リアルタイム位置

3D地球を読み込み中...

次回通過

高度履歴

Altitude vs Time

uPlot chart will show altitude changes over time

軌道要素

1 60355U 24138A 25352.31605419 .00010214 00000-0 35635-3 0 9996
2 60355 53.1612 327.2446 0001483 82.9289 277.1881 15.30213476 78170
Epoch: Dec 18, 2025 • Age: 18 hours

現在のステータス

高度 493.8 km
速度 7.62 km/s
衛星直下点 -51.23°S, 136.75°E
打ち上げ日 Aug 4, 2024
運用期間 1.3 years
タイプ internet

技術仕様

分類 Payload
質量 730.00 kg
乾燥質量 700.00 kg
総質量 730.00 kg
長さ 0.30 m
直径 4.10 m
スパン 29.00 m
形状 Box + pan
製造者 SPXS
バスタイプ Starlink V2M
フェーズステータス In Orbit
所有者/国 SPXS/US

大規模コンステレーション

Loading constellations...